Date String (YYYY-MM-DD hh:mm:ss) UTC,Instrument flags,absolute air pressure of the measurement (hPa),sample flow rate (lpm),inlet stack bypass flow (lpm),air temperature of the measurement (°C),ambient temperature measured by the external sensor (°C),aerosol sample conditioner tube jacket temperature (°C),OPC LED temperature (°C),internal box temperature (°C),relative humidity of the measurement (%),span deviation,mass concentration of particles derived from Lorenz-Mie calculation of OPC scattering (μg/m³),mass concentration of particles derived from Lorenz-Mie calculation of OPC scattering (μg/m³),mass concentration of particles derived from Lorenz-Mie calculation of OPC scattering (μg/m³)
DateTimeUTC,F1_M11,P_M11,Q1_M11,Q2_M11,T1_M11,T2_M11,T3_M11,T4_M11,T5_M11,U1_M11,ZSPAN_M11,X0_M11,X2_M11,X1_M11
2024-03-28 09:00:00,SystemResetWarning,0826.4,5.00,000.00,018.7,018.3,000.0,027.0,020.4,12.4,0000.0,0003.26,0002.04,0001.41
2024-03-28 09:01:00,SystemResetWarning,0826.3,5.01,000.00,018.7,018.2,000.0,027.1,020.3,12.2,0000.0,0003.26,0002.03,0001.41
2024-03-28 09:02:00,SystemResetWarning,0826.3,5.00,000.00,018.6,018.1,000.0,027.1,020.3,12.2,0000.0,0003.39,0002.07,0001.43
2024-03-28 09:03:00,SystemResetWarning,0826.2,5.00,000.00,018.6,018.0,000.0,027.1,020.2,12.0,0000.0,0003.31,0002.08,0001.45
2024-03-28 09:04:00,SystemResetWarning,0826.2,5.01,000.00,018.6,017.9,000.0,027.1,020.2,12.0,0000.0,0003.16,0002.04,0001.45
2024-03-28 09:05:00,SystemResetWarning,0826.1,5.00,000.00,018.5,017.9,000.0,027.1,020.2,12.0,0000.0,0003.25,0002.05,0001.46
2024-03-28 09:06:00,SystemResetWarning,0826.1,5.00,000.00,018.5,017.8,000.0,027.0,020.1,11.8,0000.0,0003.12,0002.00,0001.47
2024-03-28 09:07:00,SystemResetWarning,0826.2,5.00,000.00,018.5,017.8,000.0,027.0,020.1,12.2,0000.0,0003.54,0002.04,0001.48
2024-03-28 09:08:00,SystemResetWarning,0826.1,5.00,000.00,018.4,017.7,000.0,027.0,020.0,12.5,0000.0,0003.70,0002.05,0001.49
2024-03-28 09:09:00,SystemResetWarning,0826.1,5.00,000.00,018.4,017.7,000.0,027.0,020.0,12.1,0000.0,0003.81,0002.11,0001.50
2024-03-28 09:10:00,SystemResetWarning,0826.1,5.00,000.00,018.4,017.6,000.0,027.0,020.0,12.2,0000.0,0003.86,0002.14,0001.51
2024-03-28 09:11:00,SystemResetWarning,0825.9,5.00,000.00,018.4,017.6,000.0,027.0,020.0,12.3,0000.0,0003.91,0002.13,0001.50
2024-03-28 09:12:00,SystemResetWarning,0825.9,4.99,000.00,018.3,017.6,000.0,027.0,020.0,12.2,0000.0,0003.97,0002.16,0001.51
2024-03-28 09:13:00,SystemResetWarning,0825.9,5.00,000.00,018.3,017.5,000.0,027.0,020.0,12.1,0000.0,0003.99,0002.17,0001.51
2024-03-28 09:14:00,SystemResetWarning,0825.9,5.00,000.00,018.3,017.5,000.0,027.0,020.0,12.2,0000.0,0003.96,0002.16,0001.49
2024-03-28 09:15:00,SystemResetWarning,0825.9,4.99,000.00,018.3,017.5,000.0,027.0,020.0,12.1,0000.0,0004.01,0002.17,0001.48
2024-03-28 09:16:00,SystemResetWarning,0825.9,4.99,000.00,018.3,017.5,000.0,027.0,020.0,12.0,0000.0,0003.99,0002.17,0001.48
2024-03-28 09:17:00,SystemResetWarning,0825.9,5.01,000.00,018.3,017.5,000.0,027.0,020.0,12.1,0000.0,0005.16,0002.17,0001.48
2024-03-28 09:18:00,SystemResetWarning,0825.9,5.01,000.00,018.3,017.4,000.0,027.0,020.0,12.2,0000.0,0004.96,0002.11,0001.47
2024-03-28 09:19:00,SystemResetWarning,0826.0,4.99,000.00,018.3,017.4,000.0,027.0,020.0,12.0,0000.0,0005.06,0002.16,0001.46
2024-03-28 09:20:00,SystemResetWarning,0826.0,5.00,000.00,018.3,017.4,000.0,027.0,020.0,11.9,0000.0,0005.28,0002.14,0001.44
2024-03-28 09:21:00,SystemResetWarning,0826.0,5.00,000.00,018.3,017.8,000.0,027.0,020.2,11.9,0000.0,0005.32,0002.12,0001.42
2024-03-28 09:22:00,SystemResetWarning,0826.1,5.01,000.00,018.6,018.7,000.0,027.1,020.8,11.7,0000.0,0005.36,0002.11,0001.42
2024-03-28 09:23:00,SystemResetWarning,0826.0,4.98,000.00,018.8,019.0,000.0,027.1,021.0,11.8,0000.0,0005.17,0002.06,0001.42
2024-03-28 09:24:00,SystemResetWarning,0826.0,5.00,000.00,018.8,018.9,000.0,027.1,020.8,11.7,0000.0,0005.20,0002.07,0001.41
2024-03-28 09:25:00,SystemResetWarning,0826.0,5.01,000.00,018.8,018.7,000.0,027.1,020.7,11.4,0000.0,0005.20,0002.06,0001.41
2024-03-28 09:26:00,SystemResetWarning,0826.0,5.00,000.00,018.8,018.6,000.0,027.1,020.6,11.8,0000.0,0005.18,0002.05,0001.41
2024-03-28 09:27:00,SystemResetWarning,0826.0,5.00,000.00,018.8,018.5,000.0,027.1,020.5,12.1,0000.0,0005.19,0002.03,0001.40
2024-03-28 09:28:00,SystemResetWarning,0826.0,5.01,000.00,018.7,018.4,000.0,027.1,020.4,12.2,0000.0,0004.28,0002.04,0001.40
2024-03-28 09:29:00,SystemResetWarning,0825.8,5.00,000.00,018.7,018.3,000.0,027.1,020.4,12.1,0000.0,0004.00,0002.09,0001.41
2024-03-28 09:30:00,SystemResetWarning,0825.9,5.00,000.00,018.7,018.2,000.0,027.1,020.4,11.7,0000.0,0003.79,0002.06,0001.42
2024-03-28 09:31:00,SystemResetWarning,0825.9,4.99,000.00,018.7,018.2,000.0,027.1,020.3,11.7,0000.0,0003.50,0002.01,0001.43
2024-03-28 09:32:00,SystemResetWarning,0825.9,5.00,000.00,018.7,018.1,000.0,027.1,020.3,11.7,0000.0,0003.58,0002.01,0001.43
2024-03-28 09:33:00,SystemResetWarning,0825.9,5.00,000.00,018.6,018.0,000.0,027.1,020.3,12.0,0000.0,0003.60,0002.04,0001.42
2024-03-28 09:34:00,SystemResetWarning,0825.9,5.00,000.00,018.6,018.0,000.0,027.1,020.2,12.1,0000.0,0003.72,0002.05,0001.41
2024-03-28 09:35:00,SystemResetWarning,0825.9,5.00,000.00,018.6,017.9,000.0,027.1,020.2,11.7,0000.0,0004.06,0002.06,0001.41
2024-03-28 09:36:00,SystemResetWarning,0825.9,5.01,000.00,018.6,017.8,000.0,027.1,020.2,11.7,0000.0,0003.98,0002.04,0001.41
2024-03-28 09:37:00,SystemResetWarning,0825.9,5.01,000.00,018.5,017.7,000.0,027.1,020.1,11.9,0000.0,0004.14,0002.06,0001.39
2024-03-28 09:38:00,SystemResetWarning,0825.9,5.01,000.00,018.5,017.7,000.0,027.1,020.1,11.9,0000.0,0004.15,0002.05,0001.39
2024-03-28 09:39:00,SystemResetWarning,0825.9,4.99,000.00,018.5,017.7,000.0,027.0,020.1,11.7,0000.0,0004.04,0002.04,0001.39
2024-03-28 09:40:00,SystemResetWarning,0825.9,5.00,000.00,018.4,017.7,000.0,027.0,020.1,11.9,0000.0,0004.01,0002.04,0001.38
2024-03-28 09:41:00,SystemResetWarning,0826.0,5.00,000.00,018.4,017.7,000.0,027.0,020.1,11.7,0000.0,0004.04,0002.05,0001.39
2024-03-28 09:42:00,SystemResetWarning,0825.9,4.99,000.00,018.4,017.7,000.0,027.0,020.1,11.9,0000.0,0004.28,0002.15,0001.41
2024-03-28 09:43:00,SystemResetWarning,0825.9,5.01,000.00,018.4,017.7,000.0,027.0,020.1,12.0,0000.0,0004.03,0002.13,0001.40
2024-03-28 09:44:00,SystemResetWarning,0825.9,5.01,000.00,018.4,017.7,000.0,027.0,020.0,12.2,0000.0,0003.93,0002.07,0001.40
2024-03-28 09:45:00,SystemResetWarning,0825.9,5.01,000.00,018.4,017.7,000.0,027.0,020.0,12.4,0000.0,0003.87,0002.08,0001.42
2024-03-28 09:46:00,SystemResetWarning,0825.9,5.00,000.00,018.4,017.7,000.0,026.9,020.0,12.2,0000.0,0003.48,0002.03,0001.41
2024-03-28 09:47:00,SystemResetWarning,0825.9,5.00,000.00,018.4,017.7,000.0,026.9,020.0,12.5,0000.0,0003.46,0002.02,0001.41
2024-03-28 09:48:00,SystemResetWarning,0825.9,5.00,000.00,018.4,017.7,000.0,026.9,020.0,12.3,0000.0,0003.49,0002.01,0001.42
2024-03-28 09:49:00,SystemResetWarning,0825.9,4.98,000.00,018.4,017.7,000.0,026.9,020.0,12.3,0000.0,0003.56,0002.05,0001.43
2024-03-28 09:50:00,SystemResetWarning,0825.9,5.00,000.00,018.4,017.7,000.0,026.9,020.0,12.3,0000.0,0003.55,0002.05,0001.44
2024-03-28 09:51:00,SystemResetWarning,0825.9,5.01,000.00,018.3,017.7,000.0,026.9,020.0,12.3,0000.0,0003.59,0002.05,0001.44
2024-03-28 09:52:00,SystemResetWarning,0825.9,5.00,000.00,018.3,017.7,000.0,026.9,020.0,12.4,0000.0,0003.74,0002.04,0001.42
2024-03-28 09:53:00,SystemResetWarning,0825.9,4.98,000.00,018.3,017.7,000.0,026.9,020.0,12.3,0000.0,0004.26,0001.98,0001.40
2024-03-28 09:54:00,SystemResetWarning,0825.9,4.99,000.00,018.3,017.7,000.0,026.9,020.0,12.4,0000.0,0004.25,0001.98,0001.40
2024-03-28 09:55:00,SystemResetWarning,0825.9,5.00,000.00,018.3,017.7,000.0,026.9,020.0,12.2,0000.0,0004.18,0001.98,0001.42
2024-03-28 09:56:00,SystemResetWarning,0825.9,5.01,000.00,018.3,017.7,000.0,026.9,020.0,12.8,0000.0,0004.08,0001.95,0001.41
2024-03-28 09:57:00,SystemResetWarning,0825.9,5.00,000.00,018.3,017.6,000.0,026.9,020.0,13.1,0000.0,0004.02,0001.94,0001.41
2024-03-28 09:58:00,SystemResetWarning,0825.9,5.00,000.00,018.3,017.6,000.0,026.9,020.0,12.9,0000.0,0004.01,0001.94,0001.40
2024-03-28 09:59:00,SystemResetWarning,0825.9,5.00,000.00,018.3,017.6,000.0,026.9,020.0,12.7,0000.0,0003.92,0001.96,0001.40
